| time (UTC) | temp F | wind direction | speed MPH | gust MPH | rain 1hr in | rain 24hr in | rain mn in | humidity % | barometer mb |
| 20260510174509 | 69 | 21 | 4.0 | 13.0 | 0.00 | 0.00 | 0.00 | 42 | 1019.4 |
| 20260510173008 | 69 | 342 | 4.0 | 11.0 | 0.00 | 0.00 | 0.00 | 45 | 1019.3 |
| 20260510171507 | 68 | 84 | 4.0 | 12.0 | 0.00 | 0.00 | 0.00 | 45 | 1019.1 |
| 20260510170006 | 68 | 44 | 5.0 | 11.0 | 0.00 | 0.00 | 0.00 | 43 | 1019.1 |
| 20260510164503 | 67 | 28 | 5.0 | 13.0 | 0.00 | 0.00 | 0.00 | 42 | 1018.9 |
| 20260510163059 | 67 | 327 | 5.0 | 15.0 | 0.00 | 0.00 | 0.00 | 46 | 1018.5 |
| 20260510161605 | 66 | 9 | 6.0 | 13.0 | 0.00 | 0.00 | 0.00 | 47 | 1018.5 |
| 20260510160055 | 65 | 53 | 8.0 | 15.0 | 0.00 | 0.00 | 0.00 | 47 | 1018.4 |
| 20260510154557 | 65 | 36 | 7.0 | 15.0 | 0.00 | 0.00 | 0.00 | 46 | 1018.2 |
| 20260510153054 | 64 | 43 | 7.0 | 15.0 | 0.00 | 0.00 | 0.00 | 48 | 1018.1 |
| 20260510151550 | 63 | 63 | 8.0 | 16.0 | 0.00 | 0.00 | 0.00 | 49 | 1017.9 |
| 20260510150118 | 62 | 58 | 4.0 | 16.0 | 0.00 | 0.00 | 0.00 | 55 | 1017.9 |
| 20260510144547 | 60 | 11 | 3.0 | 11.0 | 0.00 | 0.00 | 0.00 | 57 | 1018.4 |
| 20260510143046 | 60 | 39 | 3.0 | 9.0 | 0.00 | 0.00 | 0.00 | 60 | 1018.5 |
| 20260510141545 | 59 | 49 | 4.0 | 9.0 | 0.00 | 0.00 | 0.00 | 63 | 1018.5 |
| 20260510140043 | 59 | 43 | 3.0 | 10.0 | 0.00 | 0.00 | 0.00 | 63 | 1018.3 |
| 20260510134542 | 59 | 34 | 4.0 | 16.0 | 0.00 | 0.00 | 0.00 | 62 | 1018.0 |
| 20260510133038 | 59 | 45 | 4.0 | 13.0 | 0.00 | 0.00 | 0.00 | 64 | 1017.7 |
| 20260510131534 | 59 | 46 | 5.0 | 10.0 | 0.00 | 0.00 | 0.00 | 65 | 1016.9 |
| 20260510130032 | 58 | 100 | 4.0 | 15.0 | 0.00 | 0.00 | 0.00 | 68 | 1016.5 |
| 20260510124530 | 58 | 57 | 4.0 | 15.0 | 0.00 | 0.00 | 0.00 | 70 | 1016.5 |
| 20260510123026 | 57 | 63 | 5.0 | 14.0 | 0.00 | 0.00 | 0.00 | 73 | 1016.0 |
| 20260510121523 | 56 | 40 | 5.0 | 12.0 | 0.00 | 0.00 | 0.00 | 76 | 1015.5 |
| 20260510120026 | 56 | 48 | 4.0 | 10.0 | 0.00 | 0.00 | 0.00 | 77 | 1015.3 |
| 20260510114526 | 56 | 38 | 3.0 | 10.0 | 0.00 | 0.00 | 0.00 | 79 | 1015.1 |
| 20260510113016 | 56 | 47 | 3.0 | 6.0 | 0.00 | 0.00 | 0.00 | 79 | 1015.0 |
| 20260510111514 | 56 | 50 | 3.0 | 7.0 | 0.00 | 0.00 | 0.00 | 79 | 1015.0 |
| 20260510110013 | 57 | 57 | 2.0 | 6.0 | 0.00 | 0.00 | 0.00 | 78 | 1014.7 |
| 20260510104511 | 57 | 58 | 2.0 | 6.0 | 0.00 | 0.00 | 0.00 | 78 | 1014.6 |
| 20260510103009 | 57 | 38 | 2.0 | 9.0 | 0.00 | 0.00 | 0.00 | 78 | 1014.4 |
| 20260510101505 | 57 | 40 | 2.0 | 8.0 | 0.00 | 0.00 | 0.00 | 78 | 1014.1 |
| 20260510100003 | 58 | 42 | 3.0 | 6.0 | 0.00 | 0.00 | 0.00 | 77 | 1013.7 |
| 20260510094505 | 58 | 27 | 2.0 | 6.0 | 0.00 | 0.00 | 0.00 | 77 | 1013.6 |
| 20260510093121 | 59 | 16 | 3.0 | 8.0 | 0.00 | 0.00 | 0.00 | 76 | 1013.6 |
| 20260510091558 | 59 | 53 | 2.0 | 5.0 | 0.00 | 0.00 | 0.00 | 75 | 1013.2 |
| 20260510090058 | 59 | 59 | 1.0 | 5.0 | 0.00 | 0.00 | 0.00 | 75 | 1013.2 |
| 20260510084554 | 60 | 61 | 1.0 | 3.0 | 0.00 | 0.00 | 0.00 | 75 | 1012.8 |
| 20260510083104 | 60 | 61 | 1.0 | 5.0 | 0.00 | 0.00 | 0.00 | 75 | 1012.4 |
| 20260510081551 | 61 | 64 | 2.0 | 5.0 | 0.00 | 0.00 | 0.00 | 74 | 1012.4 |
| 20260510080057 | 60 | 77 | 2.0 | 5.0 | 0.00 | 0.00 | 0.00 | 75 | 1012.5 |
| 20260510074550 | 59 | 16 | 1.0 | 2.0 | 0.00 | 0.00 | 0.00 | 81 | 1012.4 |
| 20260510073054 | 60 | 16 | 1.0 | 2.0 | 0.00 | 0.00 | 0.00 | 81 | 1012.3 |
| 20260510071546 | 60 | 16 | 1.0 | 2.0 | 0.00 | 0.00 | 0.00 | 79 | 1012.0 |
| 20260510070043 | 61 | 16 | 0.0 | 1.0 | 0.00 | 0.00 | 0.00 | 79 | 1012.1 |
| 20260510064541 | 61 | 16 | 1.0 | 2.0 | 0.00 | 0.01 | 0.00 | 80 | 1012.1 |
| 20260510063040 | 61 | 16 | 0.0 | 1.0 | 0.00 | 0.01 | 0.00 | 78 | 1011.9 |
| 20260510061538 | 62 | 16 | 0.0 | 2.0 | 0.00 | 0.01 | 0.00 | 78 | 1011.9 |
| 20260510060043 | 62 | 342 | 1.0 | 3.0 | 0.00 | 0.01 | 0.00 | 79 | 1011.7 |
| 20260510054539 | 62 | 342 | 0.0 | 1.0 | 0.00 | 0.01 | 0.00 | 77 | 1011.9 |
| 20260510053032 | 63 | 342 | 0.0 | 0.0 | 0.00 | 0.01 | 0.00 | 75 | 1011.8 |
| 20260510051533 | 64 | 342 | 0.0 | 2.0 | 0.00 | 0.01 | 0.00 | 72 | 1011.8 |
| 20260510050026 | 65 | 342 | 0.0 | 3.0 | 0.00 | 0.01 | 0.00 | 72 | 1012.0 |
| 20260510044525 | 64 | 342 | 1.0 | 6.0 | 0.00 | 0.01 | 0.01 | 69 | 1012.1 |
| 20260510043027 | 64 | 343 | 0.0 | 4.0 | 0.00 | 0.01 | 0.01 | 72 | 1012.0 |
| 20260510041523 | 63 | 333 | 3.0 | 10.0 | 0.00 | 0.01 | 0.01 | 73 | 1011.9 |
| 20260510040020 | 63 | 167 | 0.0 | 1.0 | 0.00 | 0.01 | 0.01 | 72 | 1011.3 |
| 20260510034522 | 64 | 167 | 0.0 | 2.0 | 0.00 | 0.01 | 0.01 | 72 | 1011.2 |
| 20260510033015 | 65 | 167 | 1.0 | 3.0 | 0.00 | 0.01 | 0.01 | 69 | 1010.8 |
| 20260510031514 | 65 | 167 | 3.0 | 6.0 | 0.00 | 0.01 | 0.01 | 70 | 1010.5 |
| 20260510030018 | 65 | 167 | 3.0 | 5.0 | 0.00 | 0.01 | 0.01 | 71 | 1010.4 |
| 20260510024511 | 66 | 169 | 1.0 | 5.0 | 0.00 | 0.01 | 0.01 | 69 | 1010.3 |
| 20260510023009 | 66 | 168 | 2.0 | 5.0 | 0.00 | 0.01 | 0.01 | 69 | 1010.0 |
| 20260510021509 | 67 | 168 | 1.0 | 3.0 | 0.00 | 0.01 | 0.01 | 68 | 1009.5 |
| 20260510020008 | 68 | 168 | 2.0 | 5.0 | 0.00 | 0.01 | 0.01 | 68 | 1009.2 |
| 20260510014510 | 68 | 167 | 2.0 | 4.0 | 0.00 | 0.01 | 0.01 | 65 | 1008.6 |
| 20260510013008 | 70 | 167 | 1.0 | 5.0 | 0.00 | 0.01 | 0.01 | 62 | 1008.5 |
| 20260510011508 | 72 | 167 | 4.0 | 6.0 | 0.00 | 0.01 | 0.01 | 60 | 1008.2 |
| 20260510010006 | 73 | 186 | 4.0 | 6.0 | 0.00 | 0.01 | 0.01 | 57 | 1008.1 |
| 20260510004505 | 75 | 180 | 3.0 | 7.0 | 0.00 | 0.01 | 0.01 | 55 | 1007.9 |
| 20260510003014 | 76 | 183 | 3.0 | 8.0 | 0.00 | 0.01 | 0.01 | 53 | 1007.9 |
| 20260510001503 | 77 | 206 | 5.0 | 10.0 | 0.00 | 0.01 | 0.01 | 50 | 1007.8 |
| 20260510000004 | 77 | 190 | 6.0 | 12.0 | 0.00 | 0.01 | 0.01 | 49 | 1007.8 |
| 20260509234503 | 78 | 184 | 6.0 | 10.0 | 0.00 | 0.01 | 0.01 | 48 | 1007.8 |
| 20260509233001 | 78 | 159 | 4.0 | 11.0 | 0.00 | 0.01 | 0.01 | 51 | 1007.9 |
| 20260509231503 | 79 | 186 | 3.0 | 10.0 | 0.00 | 0.01 | 0.01 | 48 | 1007.9 |
| 20260509224603 | 78 | 202 | 3.0 | 9.0 | 0.00 | 0.01 | 0.01 | 46 | 1007.8 |
| 20260509223059 | 79 | 171 | 4.0 | 10.0 | 0.00 | 0.01 | 0.01 | 42 | 1007.8 |
| 20260509221602 | 82 | 182 | 5.0 | 9.0 | 0.00 | 0.01 | 0.01 | 36 | 1007.9 |
| 20260509220106 | 83 | 183 | 4.0 | 10.0 | 0.00 | 0.01 | 0.01 | 38 | 1007.8 |
| 20260509214601 | 83 | 181 | 4.0 | 10.0 | 0.00 | 0.01 | 0.01 | 34 | 1007.9 |
| 20260509213119 | 83 | 184 | 3.0 | 10.0 | 0.00 | 0.01 | 0.01 | 34 | 1007.9 |
| 20260509211554 | 82 | 162 | 4.0 | 9.0 | 0.00 | 0.01 | 0.01 | 40 | 1008.0 |
| 20260509204548 | 82 | 184 | 2.0 | 10.0 | 0.00 | 0.01 | 0.01 | 35 | 1008.4 |
| 20260509203146 | 82 | 219 | 2.0 | 7.0 | 0.00 | 0.01 | 0.01 | 40 | 1008.5 |
| 20260509201544 | 83 | 266 | 1.0 | 8.0 | 0.00 | 0.01 | 0.01 | 40 | 1008.7 |
| 20260509200043 | 82 | 201 | 4.0 | 11.0 | 0.00 | 0.01 | 0.01 | 42 | 1008.9 |
| 20260509194541 | 81 | 272 | 4.0 | 11.0 | 0.00 | 0.01 | 0.01 | 41 | 1009.0 |
| 20260509193043 | 81 | 200 | 4.0 | 14.0 | 0.00 | 0.01 | 0.01 | 39 | 1009.1 |
| 20260509191541 | 80 | 257 | 4.0 | 12.0 | 0.00 | 0.01 | 0.01 | 45 | 1009.1 |
| 20260509190040 | 81 | 182 | 6.0 | 14.0 | 0.00 | 0.01 | 0.01 | 37 | 1009.2 |
| 20260509184550 | 79 | 246 | 5.0 | 12.0 | 0.00 | 0.01 | 0.01 | 47 | 1009.3 |
| 20260509183034 | 80 | 235 | 3.0 | 12.0 | 0.00 | 0.01 | 0.01 | 46 | 1009.3 |
| 20260509181537 | 79 | 269 | 4.0 | 11.0 | 0.00 | 0.01 | 0.01 | 47 | 1009.4 |
| 20260509180030 | 79 | 291 | 4.0 | 13.0 | 0.00 | 0.01 | 0.01 | 49 | 1009.5 |